Location: Newark
(25.0000°N, 73.5000°E)
Time: 03:46:49
(UTC+00:00)

Altair - Pass Details

Date: 03 March 2021
Orbit: 1501 x 1683 km, 47.2° (Epoch: 12 April)

Event Time Altitude Azimuth Distance (km) Brightness Sun altitude
Rises 21:15:21 0° 310° (NW) 4,787 - -56.3°
Reaches altitude 10° 21:18:25 10° 308° (NW) 3,825 - -55.7°
Maximum altitude 21:28:08 70° 227° (SW) 1,731 - -53.7°
Drops below altitude 10° 21:38:09 10° 146° (SE) 3,927 - -51.7°
Exits shadow 21:38:44 - 145° (SE) 4,107 9.8 -51.6°
Sets 21:41:21 0° 144° (SE) 4,920 10.3 -51.0°
